TimeEDT,TemperatureF,Dew PointF,Humidity,Sea Level PressureIn,VisibilityMPH,Wind Direction,Wind SpeedMPH,Gust SpeedMPH,PrecipitationIn,Events,Conditions,WindDirDegrees,DateUTC
12:53 AM,73.0,64.9,76,30.10,10.0,North,3.5,-,N/A,,Clear,350,2012-10-13 04:53:00
1:53 AM,72.0,66.0,81,30.09,10.0,NNW,4.6,-,N/A,,Partly Cloudy,330,2012-10-13 05:53:00
2:53 AM,72.0,66.9,84,30.07,10.0,NNW,6.9,-,N/A,,Partly Cloudy,340,2012-10-13 06:53:00
3:53 AM,72.0,66.9,84,30.06,10.0,NNW,8.1,-,N/A,,Scattered Clouds,330,2012-10-13 07:53:00
4:53 AM,73.0,66.9,81,30.05,10.0,NNW,8.1,-,N/A,,Mostly Cloudy,340,2012-10-13 08:53:00
5:53 AM,73.9,66.9,79,30.06,10.0,North,6.9,-,N/A,,Overcast,350,2012-10-13 09:53:00
6:53 AM,72.0,69.1,91,30.07,9.0,NNW,6.9,-,0.01,,Mostly Cloudy,330,2012-10-13 10:53:00
7:37 AM,71.6,69.8,94,30.08,1.5,Calm,Calm,-,0.07,Rain,Light Rain,0,2012-10-13 11:37:00
7:41 AM,71.6,69.8,94,30.08,0.8,North,10.4,18.4,0.15,Rain,Heavy Rain,10,2012-10-13 11:41:00
7:51 AM,73.4,69.8,88,30.08,6.0,North,6.9,19.6,0.18,Rain,Light Rain,360,2012-10-13 11:51:00
7:53 AM,73.0,70.0,90,30.09,6.0,North,6.9,19.6,0.21,Rain,Light Rain,10,2012-10-13 11:53:00
8:05 AM,73.4,71.6,94,30.09,0.5,NE,13.8,19.6,0.16,Fog-Rain,Heavy Rain,50,2012-10-13 12:05:00
8:15 AM,73.4,71.6,94,30.10,7.0,NE,9.2,-,0.16,,Overcast,40,2012-10-13 12:15:00
8:53 AM,73.9,71.1,91,30.10,4.0,NE,6.9,19.6,0.19,Rain,Light Rain,50,2012-10-13 12:53:00
9:53 AM,80.1,71.1,74,30.12,7.0,ENE,15.0,-,0.02,,Overcast,60,2012-10-13 13:53:00
10:53 AM,81.0,70.0,69,30.12,5.0,NE,18.4,27.6,0.01,Rain,Light Rain,50,2012-10-13 14:53:00
11:00 AM,77.0,69.8,78,30.13,1.0,NE,20.7,29.9,0.09,Rain,Light Rain,50,2012-10-13 15:00:00
11:08 AM,75.2,71.6,89,30.13,3.0,ENE,19.6,26.5,0.10,Rain,Light Rain,60,2012-10-13 15:08:00
11:53 AM,77.0,72.0,84,30.12,8.0,ENE,11.5,-,0.12,,Overcast,60,2012-10-13 15:53:00
12:53 PM,82.9,71.1,67,30.09,8.0,ENE,19.6,24.2,N/A,,Overcast,60,2012-10-13 16:53:00
1:53 PM,84.0,66.9,56,30.09,10.0,ENE,23.0,31.1,N/A,,Mostly Cloudy,70,2012-10-13 17:53:00
2:53 PM,82.9,66.0,56,30.05,10.0,ENE,19.6,29.9,N/A,,Overcast,60,2012-10-13 18:53:00
3:53 PM,84.0,66.0,55,30.04,9.0,NE,21.9,33.4,N/A,,Scattered Clouds,50,2012-10-13 19:53:00
4:53 PM,82.9,66.0,56,30.04,9.0,ENE,19.6,27.6,N/A,,Partly Cloudy,60,2012-10-13 20:53:00
5:53 PM,81.0,64.0,56,30.05,9.0,NE,18.4,26.5,N/A,,Scattered Clouds,50,2012-10-13 21:53:00
6:53 PM,80.1,66.0,62,30.05,9.0,ENE,17.3,21.9,N/A,,Scattered Clouds,60,2012-10-13 22:53:00
8:53 PM,80.1,66.0,62,30.08,10.0,ENE,11.5,23.0,N/A,,Mostly Cloudy,60,2012-10-14 00:53:00
9:53 PM,80.1,66.0,62,30.09,9.0,ENE,18.4,26.5,N/A,,Mostly Cloudy,60,2012-10-14 01:53:00
10:53 PM,79.0,66.0,64,30.09,10.0,ENE,17.3,24.2,0.00,,Overcast,60,2012-10-14 02:53:00
11:53 PM,78.1,64.9,64,30.08,10.0,ENE,12.7,-,N/A,,Partly Cloudy,60,2012-10-14 03:53:00